| time (UTC) | temp F | wind direction | speed knots | gust knots | rain 1hr in | rain 24hr in | rain mn in | humidity % | barometer mb |
| 20260505065602 | 57 | 202 | 0.9 | 2.6 | 0.00 | 0.00 | 0.00 | 60 | 1007.8 |
| 20260505065202 | 57 | 161 | 0.0 | 0.9 | 0.00 | 0.00 | 0.00 | 60 | 1007.8 |
| 20260505064801 | 57 | 162 | 0.0 | 4.3 | 0.00 | 0.00 | 0.00 | 60 | 1007.8 |
| 20260505064601 | 57 | 162 | 0.0 | 4.3 | 0.00 | 0.00 | 0.00 | 60 | 1007.8 |
| 20260505064402 | 57 | 161 | 0.0 | 4.3 | 0.00 | 0.00 | 0.00 | 60 | 1007.8 |
| 20260505064203 | 57 | 161 | 0.0 | 4.3 | 0.00 | 0.00 | 0.00 | 60 | 1007.8 |
| 20260505064002 | 57 | 161 | 0.9 | 4.3 | 0.00 | 0.00 | 0.00 | 60 | 1007.8 |
| 20260505063603 | 58 | 193 | 0.0 | 2.6 | 0.00 | 0.00 | 0.00 | 61 | 1007.8 |
| 20260505063402 | 58 | 193 | 0.9 | 2.6 | 0.00 | 0.00 | 0.00 | 61 | 1007.8 |
| 20260505063202 | 58 | 193 | 0.0 | 3.5 | 0.00 | 0.00 | 0.00 | 60 | 1007.8 |
| 20260505063001 | 58 | 193 | 0.0 | 3.5 | 0.00 | 0.00 | 0.00 | 60 | 1007.8 |
| 20260505062802 | 58 | 193 | 0.9 | 4.3 | 0.00 | 0.00 | 0.00 | 60 | 1007.7 |
| 20260505062601 | 58 | 193 | 0.0 | 5.2 | 0.00 | 0.00 | 0.00 | 60 | 1007.7 |
| 20260505062202 | 58 | 189 | 2.6 | 6.1 | 0.00 | 0.00 | 0.00 | 60 | 1007.6 |
| 20260505062002 | 58 | 199 | 2.6 | 6.1 | 0.00 | 0.00 | 0.00 | 60 | 1007.6 |
| 20260505061802 | 58 | 202 | 2.6 | 6.1 | 0.00 | 0.00 | 0.00 | 59 | 1007.6 |
| 20260505061603 | 59 | 185 | 2.6 | 9.6 | 0.00 | 0.00 | 0.00 | 59 | 1007.5 |
| 20260505061403 | 59 | 153 | 2.6 | 9.6 | 0.00 | 0.00 | 0.00 | 59 | 1007.5 |
| 20260505061203 | 59 | 181 | 2.6 | 9.6 | 0.00 | 0.00 | 0.00 | 58 | 1007.5 |
| 20260505061004 | 59 | 213 | 4.3 | 9.6 | 0.00 | 0.00 | 0.00 | 58 | 1007.5 |
| 20260505060802 | 59 | 195 | 5.2 | 12.2 | 0.00 | 0.00 | 0.00 | 58 | 1007.5 |
| 20260505060402 | 59 | 193 | 3.5 | 7.8 | 0.00 | 0.00 | 0.00 | 57 | 1007.5 |
| 20260505060203 | 59 | 159 | 3.5 | 7.8 | 0.00 | 0.00 | 0.00 | 57 | 1007.4 |
| 20260505060007 | 59 | 168 | 2.6 | 6.1 | 0.00 | 0.00 | 0.00 | 57 | 1007.3 |
| 20260505055803 | 59 | 190 | 2.6 | 7.0 | 0.00 | 0.00 | 0.00 | 56 | 1007.3 |
| 20260505055603 | 59 | 200 | 3.5 | 7.0 | 0.00 | 0.00 | 0.00 | 56 | 1007.3 |
| 20260505055403 | 59 | 189 | 2.6 | 7.0 | 0.00 | 0.00 | 0.00 | 56 | 1007.2 |
| 20260505055204 | 59 | 223 | 2.6 | 8.7 | 0.00 | 0.00 | 0.00 | 56 | 1007.2 |
| 20260505055004 | 60 | 194 | 3.5 | 8.7 | 0.00 | 0.00 | 0.00 | 56 | 1007.2 |
| 20260505054802 | 60 | 192 | 3.5 | 8.7 | 0.00 | 0.00 | 0.00 | 55 | 1007.2 |
| 20260505054603 | 60 | 213 | 4.3 | 8.7 | 0.00 | 0.00 | 0.00 | 55 | 1007.0 |
| 20260505054402 | 60 | 173 | 5.2 | 8.7 | 0.00 | 0.00 | 0.00 | 55 | 1007.0 |
| 20260505054204 | 60 | 214 | 3.5 | 10.4 | 0.00 | 0.00 | 0.00 | 54 | 1006.9 |
| 20260505054003 | 60 | 182 | 3.5 | 10.4 | 0.00 | 0.00 | 0.00 | 54 | 1006.9 |
| 20260505053802 | 60 | 207 | 3.5 | 10.4 | 0.00 | 0.00 | 0.00 | 53 | 1006.8 |
| 20260505053603 | 60 | 179 | 4.3 | 10.4 | 0.00 | 0.00 | 0.00 | 52 | 1006.8 |
| 20260505053403 | 60 | 189 | 2.6 | 7.0 | 0.00 | 0.00 | 0.00 | 51 | 1006.7 |
| 20260505053202 | 60 | 171 | 2.6 | 6.1 | 0.00 | 0.00 | 0.00 | 51 | 1006.6 |
| 20260505052803 | 60 | 190 | 0.9 | 1.7 | 0.00 | 0.00 | 0.00 | 50 | 1006.5 |
| 20260505052603 | 60 | 207 | 0.0 | 3.5 | 0.00 | 0.00 | 0.00 | 49 | 1006.5 |
| 20260505052203 | 60 | 207 | 0.0 | 6.1 | 0.00 | 0.00 | 0.00 | 49 | 1006.4 |
| 20260505052002 | 60 | 207 | 0.9 | 6.1 | 0.00 | 0.00 | 0.00 | 49 | 1006.4 |
| 20260505051403 | 60 | 213 | 1.7 | 5.2 | 0.00 | 0.00 | 0.00 | 49 | 1006.4 |
| 20260505051203 | 60 | 199 | 1.7 | 5.2 | 0.00 | 0.00 | 0.00 | 49 | 1006.4 |
| 20260505051004 | 60 | 196 | 1.7 | 4.3 | 0.00 | 0.00 | 0.00 | 49 | 1006.4 |
| 20260505050802 | 60 | 160 | 0.9 | 2.6 | 0.00 | 0.00 | 0.00 | 49 | 1006.4 |
| 20260505050603 | 60 | 160 | 0.9 | 2.6 | 0.00 | 0.00 | 0.00 | 49 | 1006.4 |
| 20260505050203 | 60 | 190 | 0.9 | 2.6 | 0.00 | 0.00 | 0.00 | 49 | 1006.3 |
| 20260505041603 | 61 | 186 | 0.9 | 6.1 | 0.00 | 0.00 | 0.00 | 47 | 1005.9 |
| 20260505041403 | 61 | 199 | 1.7 | 6.1 | 0.00 | 0.00 | 0.00 | 47 | 1005.9 |
| 20260505041203 | 61 | 169 | 0.9 | 2.6 | 0.00 | 0.00 | 0.00 | 47 | 1005.9 |
| 20260505041003 | 61 | 175 | 0.0 | 2.6 | 0.00 | 0.00 | 0.00 | 47 | 1005.9 |
| 20260505040803 | 61 | 178 | 0.0 | 0.9 | 0.00 | 0.00 | 0.00 | 47 | 1005.8 |
| 20260505040402 | 61 | 178 | 0.0 | 0.9 | 0.00 | 0.00 | 0.00 | 47 | 1005.8 |
| 20260505040203 | 62 | 178 | 0.0 | 0.9 | 0.00 | 0.00 | 0.00 | 47 | 1005.8 |
| 20260505040004 | 62 | 178 | 0.0 | 0.9 | 0.00 | 0.00 | 0.00 | 47 | 1005.7 |
| 20260505035803 | 62 | 178 | 0.0 | 0.9 | 0.00 | 0.00 | 0.00 | 47 | 1005.6 |
| 20260505035603 | 62 | 178 | 0.0 | 0.9 | 0.00 | 0.00 | 0.00 | 47 | 1005.6 |
| 20260505035402 | 62 | 178 | 0.0 | 3.5 | 0.00 | 0.00 | 0.00 | 47 | 1005.6 |
| 20260505035202 | 62 | 178 | 0.0 | 3.5 | 0.00 | 0.00 | 0.00 | 46 | 1005.6 |
| 20260505035004 | 63 | 178 | 0.0 | 3.5 | 0.00 | 0.00 | 0.00 | 46 | 1005.5 |
| 20260505034802 | 63 | 178 | 0.0 | 3.5 | 0.00 | 0.00 | 0.00 | 46 | 1005.5 |
| 20260505034603 | 63 | 178 | 0.9 | 3.5 | 0.00 | 0.00 | 0.00 | 46 | 1005.5 |
| 20260505034402 | 63 | 199 | 0.0 | 0.0 | 0.00 | 0.00 | 0.00 | 46 | 1005.5 |
| 20260505034202 | 63 | 199 | 0.0 | 1.7 | 0.00 | 0.00 | 0.00 | 45 | 1005.4 |
| 20260505034004 | 63 | 199 | 0.0 | 1.7 | 0.00 | 0.00 | 0.00 | 45 | 1005.4 |
| 20260505033603 | 64 | 199 | 0.0 | 4.3 | 0.00 | 0.00 | 0.00 | 44 | 1005.3 |
| 20260505033203 | 64 | 203 | 0.9 | 8.7 | 0.00 | 0.00 | 0.00 | 43 | 1005.2 |
| 20260505033004 | 64 | 186 | 1.7 | 8.7 | 0.00 | 0.00 | 0.00 | 43 | 1005.2 |
| 20260505032804 | 64 | 180 | 0.9 | 8.7 | 0.00 | 0.00 | 0.00 | 42 | 1005.2 |
| 20260505032602 | 64 | 180 | 2.6 | 8.7 | 0.00 | 0.00 | 0.00 | 42 | 1005.1 |
| 20260505032202 | 64 | 188 | 0.9 | 5.2 | 0.00 | 0.00 | 0.00 | 42 | 1005.1 |
| 20260505031603 | 64 | 202 | 0.0 | 0.9 | 0.00 | 0.00 | 0.00 | 42 | 1004.8 |
| 20260505031403 | 64 | 202 | 0.0 | 0.9 | 0.00 | 0.00 | 0.00 | 41 | 1004.8 |
| 20260505031203 | 64 | 202 | 0.0 | 0.9 | 0.00 | 0.00 | 0.00 | 41 | 1004.7 |
| 20260505031004 | 64 | 202 | 0.0 | 0.9 | 0.00 | 0.00 | 0.00 | 41 | 1004.8 |
| 20260505030804 | 64 | 202 | 0.0 | 0.9 | 0.00 | 0.00 | 0.00 | 40 | 1004.7 |
| 20260505030604 | 65 | 202 | 0.0 | 0.9 | 0.00 | 0.00 | 0.00 | 40 | 1004.7 |
| 20260505030403 | 65 | 202 | 0.0 | 0.9 | 0.00 | 0.00 | 0.00 | 40 | 1004.6 |
| 20260505030204 | 65 | 202 | 0.0 | 0.9 | 0.00 | 0.00 | 0.00 | 40 | 1004.6 |
| 20260505030002 | 65 | 202 | 0.0 | 0.9 | 0.00 | 0.00 | 0.00 | 40 | 1004.5 |
| 20260505025801 | 65 | 202 | 0.0 | 0.9 | 0.00 | 0.00 | 0.00 | 40 | 1004.5 |
| 20260505025601 | 65 | 202 | 0.0 | 0.9 | 0.00 | 0.00 | 0.00 | 39 | 1004.5 |
| 20260505025201 | 65 | 202 | 0.0 | 0.9 | 0.00 | 0.00 | 0.00 | 39 | 1004.5 |
| 20260505025002 | 65 | 202 | 0.0 | 0.9 | 0.00 | 0.00 | 0.00 | 39 | 1004.5 |
| 20260505024803 | 66 | 202 | 0.0 | 0.9 | 0.00 | 0.00 | 0.00 | 39 | 1004.5 |
| 20260505024402 | 66 | 202 | 0.0 | 0.9 | 0.00 | 0.00 | 0.00 | 38 | 1004.4 |
| 20260505024202 | 66 | 202 | 0.0 | 0.9 | 0.00 | 0.00 | 0.00 | 38 | 1004.2 |
| 20260505024001 | 66 | 202 | 0.0 | 1.7 | 0.00 | 0.00 | 0.00 | 38 | 1004.2 |
| 20260505023802 | 66 | 202 | 0.9 | 1.7 | 0.00 | 0.00 | 0.00 | 37 | 1004.3 |
| 20260505023602 | 66 | 202 | 0.0 | 2.6 | 0.00 | 0.00 | 0.00 | 37 | 1004.3 |
| 20260505023402 | 67 | 202 | 0.0 | 2.6 | 0.00 | 0.00 | 0.00 | 36 | 1004.3 |
| 20260505023201 | 67 | 202 | 0.0 | 2.6 | 0.00 | 0.00 | 0.00 | 36 | 1004.3 |
| 20260505023002 | 67 | 202 | 0.9 | 2.6 | 0.00 | 0.00 | 0.00 | 36 | 1004.4 |
| 20260505022802 | 67 | 202 | 0.9 | 2.6 | 0.00 | 0.00 | 0.00 | 36 | 1004.3 |
| 20260505022602 | 67 | 202 | 0.0 | 2.6 | 0.00 | 0.00 | 0.00 | 35 | 1004.3 |
| 20260505022401 | 68 | 202 | 0.9 | 3.5 | 0.00 | 0.00 | 0.00 | 36 | 1004.2 |
| 20260505022202 | 68 | 202 | 0.0 | 3.5 | 0.00 | 0.00 | 0.00 | 35 | 1004.2 |
| 20260505022002 | 68 | 202 | 0.9 | 3.5 | 0.00 | 0.00 | 0.00 | 35 | 1004.2 |
| 20260505021602 | 68 | 190 | 0.9 | 3.5 | 0.00 | 0.00 | 0.00 | 35 | 1004.2 |
| 20260505021402 | 69 | 186 | 0.9 | 5.2 | 0.00 | 0.00 | 0.00 | 35 | 1004.2 |
| 20260505021201 | 69 | 186 | 0.9 | 5.2 | 0.00 | 0.00 | 0.00 | 35 | 1004.3 |
| 20260505021001 | 69 | 186 | 1.7 | 5.2 | 0.00 | 0.00 | 0.00 | 34 | 1004.2 |
| 20260505020802 | 69 | 186 | 2.6 | 5.2 | 0.00 | 0.00 | 0.00 | 33 | 1004.2 |
| 20260505020602 | 69 | 178 | 2.6 | 4.3 | 0.00 | 0.00 | 0.00 | 33 | 1004.2 |
| 20260505020202 | 70 | 183 | 0.9 | 5.2 | 0.00 | 0.00 | 0.00 | 32 | 1004.2 |
| 20260505020004 | 70 | 183 | 1.7 | 5.2 | 0.00 | 0.00 | 0.00 | 31 | 1004.2 |
| 20260505015804 | 70 | 185 | 1.7 | 5.2 | 0.00 | 0.00 | 0.00 | 31 | 1004.1 |
| 20260505015602 | 70 | 185 | 1.7 | 5.2 | 0.00 | 0.00 | 0.00 | 31 | 1004.1 |
| 20260505015403 | 70 | 192 | 1.7 | 4.3 | 0.00 | 0.00 | 0.00 | 31 | 1004.2 |
| 20260505014803 | 71 | 188 | 1.7 | 4.3 | 0.00 | 0.00 | 0.00 | 31 | 1004.1 |
| 20260505014602 | 71 | 192 | 0.9 | 5.2 | 0.00 | 0.00 | 0.00 | 31 | 1004.1 |
| 20260505014402 | 71 | 192 | 0.9 | 5.2 | 0.00 | 0.00 | 0.00 | 31 | 1004.1 |
| 20260505014202 | 71 | 192 | 1.7 | 5.2 | 0.00 | 0.00 | 0.00 | 30 | 1004.1 |
| 20260505014003 | 71 | 192 | 2.6 | 5.2 | 0.00 | 0.00 | 0.00 | 30 | 1004.1 |
| 20260505013802 | 71 | 166 | 2.6 | 5.2 | 0.00 | 0.00 | 0.00 | 30 | 1004.2 |
| 20260505013604 | 71 | 195 | 2.6 | 5.2 | 0.00 | 0.00 | 0.00 | 29 | 1004.2 |
| 20260505013205 | 71 | 195 | 2.6 | 7.8 | 0.00 | 0.00 | 0.00 | 29 | 1004.2 |
| 20260505012803 | 71 | 188 | 2.6 | 7.8 | 0.00 | 0.00 | 0.00 | 28 | 1004.1 |
| 20260505012604 | 71 | 182 | 3.5 | 7.8 | 0.00 | 0.00 | 0.00 | 28 | 1004.2 |
| 20260505012403 | 72 | 196 | 5.2 | 7.8 | 0.00 | 0.00 | 0.00 | 28 | 1004.1 |
| 20260505012202 | 72 | 203 | 2.6 | 7.0 | 0.00 | 0.00 | 0.00 | 29 | 1004.1 |
| 20260505011803 | 72 | 190 | 2.6 | 6.1 | 0.00 | 0.00 | 0.00 | 29 | 1004.2 |
| 20260505011602 | 72 | 178 | 4.3 | 6.1 | 0.00 | 0.00 | 0.00 | 28 | 1004.2 |
| 20260505011403 | 72 | 206 | 2.6 | 7.8 | 0.00 | 0.00 | 0.00 | 28 | 1004.3 |
| 20260505011202 | 72 | 178 | 2.6 | 7.8 | 0.00 | 0.00 | 0.00 | 29 | 1004.2 |
| 20260505011004 | 72 | 189 | 0.9 | 7.8 | 0.00 | 0.00 | 0.00 | 29 | 1004.3 |
| 20260505010802 | 72 | 189 | 2.6 | 7.8 | 0.00 | 0.00 | 0.00 | 28 | 1004.3 |
| 20260505010603 | 72 | 156 | 2.6 | 7.8 | 0.00 | 0.00 | 0.00 | 28 | 1004.3 |
| 20260505010203 | 72 | 180 | 1.7 | 7.8 | 0.00 | 0.00 | 0.00 | 29 | 1004.4 |
| 20260505010005 | 72 | 186 | 3.5 | 7.8 | 0.00 | 0.00 | 0.00 | 28 | 1004.4 |
| 20260505005802 | 73 | 175 | 2.6 | 7.8 | 0.00 | 0.00 | 0.00 | 28 | 1004.4 |
| 20260505005401 | 73 | 166 | 3.5 | 7.8 | 0.00 | 0.00 | 0.00 | 28 | 1004.4 |
| 20260505005002 | 73 | 165 | 2.6 | 8.7 | 0.00 | 0.00 | 0.00 | 29 | 1004.5 |
| 20260505004802 | 73 | 194 | 1.7 | 8.7 | 0.00 | 0.00 | 0.00 | 29 | 1004.4 |
| 20260505004601 | 73 | 194 | 0.9 | 8.7 | 0.00 | 0.00 | 0.00 | 28 | 1004.5 |
| 20260505004002 | 73 | 186 | 3.5 | 9.6 | 0.00 | 0.00 | 0.00 | 28 | 1004.5 |
| 20260505003801 | 73 | 180 | 3.5 | 9.6 | 0.00 | 0.00 | 0.00 | 28 | 1004.5 |
| 20260505003402 | 72 | 196 | 5.2 | 9.6 | 0.00 | 0.00 | 0.00 | 28 | 1004.6 |
| 20260505003002 | 72 | 196 | 3.5 | 7.0 | 0.00 | 0.00 | 0.00 | 28 | 1004.6 |
| 20260505002801 | 72 | 198 | 4.3 | 7.0 | 0.00 | 0.00 | 0.00 | 28 | 1004.7 |
| 20260505002601 | 73 | 178 | 5.2 | 10.4 | 0.00 | 0.00 | 0.00 | 27 | 1004.7 |
| 20260505002401 | 73 | 184 | 4.3 | 10.4 | 0.00 | 0.00 | 0.00 | 28 | 1004.7 |
| 20260505002201 | 73 | 169 | 4.3 | 10.4 | 0.00 | 0.00 | 0.00 | 28 | 1004.7 |
| 20260505002002 | 73 | 183 | 4.3 | 10.4 | 0.00 | 0.00 | 0.00 | 29 | 1004.7 |
| 20260505001602 | 73 | 202 | 2.6 | 7.8 | 0.00 | 0.00 | 0.00 | 29 | 1004.6 |
| 20260505001401 | 73 | 154 | 1.7 | 7.0 | 0.00 | 0.00 | 0.00 | 29 | 1004.7 |
| 20260505001002 | 72 | 146 | 1.7 | 10.4 | 0.00 | 0.00 | 0.00 | 30 | 1004.7 |
| 20260505000802 | 72 | 173 | 1.7 | 10.4 | 0.00 | 0.00 | 0.00 | 30 | 1004.8 |
| 20260505000601 | 72 | 212 | 5.2 | 10.4 | 0.00 | 0.00 | 0.00 | 29 | 1004.8 |
| 20260505000401 | 72 | 191 | 7.0 | 10.4 | 0.00 | 0.00 | 0.00 | 29 | 1004.8 |
| 20260505000204 | 73 | 182 | 4.3 | 10.4 | 0.00 | 0.00 | 0.00 | 29 | 1004.8 |
| 20260505000004 | 72 | 187 | 5.2 | 10.4 | 0.00 | 0.00 | 0.00 | 29 | 1004.8 |
| 20260504235803 | 72 | 134 | 3.5 | 10.4 | 0.00 | 0.00 | 0.00 | 30 | 1004.8 |
| 20260504235602 | 72 | 194 | 6.1 | 10.4 | 0.00 | 0.00 | 0.00 | 29 | 1004.8 |
| 20260504235402 | 72 | 200 | 4.3 | 7.8 | 0.00 | 0.00 | 0.00 | 29 | 1004.8 |
| 20260504235203 | 73 | 215 | 5.2 | 8.7 | 0.00 | 0.00 | 0.00 | 28 | 1004.9 |
| 20260504234802 | 73 | 198 | 4.3 | 9.6 | 0.00 | 0.00 | 0.00 | 30 | 1004.9 |
| 20260504234602 | 73 | 200 | 5.2 | 9.6 | 0.00 | 0.00 | 0.00 | 30 | 1005.0 |
| 20260504234203 | 73 | 188 | 6.1 | 10.4 | 0.00 | 0.00 | 0.00 | 30 | 1005.0 |
| 20260504234003 | 73 | 178 | 6.1 | 8.7 | 0.00 | 0.00 | 0.00 | 30 | 1004.9 |
| 20260504233803 | 74 | 194 | 5.2 | 8.7 | 0.00 | 0.00 | 0.00 | 30 | 1004.9 |
| 20260504233601 | 74 | 186 | 6.1 | 8.7 | 0.00 | 0.00 | 0.00 | 28 | 1005.0 |
| 20260504233401 | 74 | 207 | 6.1 | 13.0 | 0.00 | 0.00 | 0.00 | 27 | 1004.9 |
| 20260504233201 | 74 | 184 | 3.5 | 13.0 | 0.00 | 0.00 | 0.00 | 26 | 1004.8 |
| 20260504233001 | 74 | 217 | 4.3 | 13.0 | 0.00 | 0.00 | 0.00 | 27 | 1004.9 |
| 20260504232801 | 74 | 196 | 3.5 | 13.0 | 0.00 | 0.00 | 0.00 | 27 | 1004.8 |
| 20260504232602 | 75 | 185 | 5.2 | 13.0 | 0.00 | 0.00 | 0.00 | 26 | 1004.8 |
| 20260504232402 | 75 | 220 | 3.5 | 8.7 | 0.00 | 0.00 | 0.00 | 26 | 1004.8 |
| 20260504232201 | 75 | 207 | 2.6 | 6.1 | 0.00 | 0.00 | 0.00 | 26 | 1004.8 |
| 20260504231802 | 74 | 200 | 2.6 | 7.8 | 0.00 | 0.00 | 0.00 | 26 | 1004.8 |
| 20260504231601 | 74 | 163 | 1.7 | 9.6 | 0.00 | 0.00 | 0.00 | 27 | 1004.9 |
| 20260504231201 | 74 | 213 | 3.5 | 9.6 | 0.00 | 0.00 | 0.00 | 27 | 1004.9 |
| 20260504231001 | 74 | 183 | 4.3 | 9.6 | 0.00 | 0.00 | 0.00 | 26 | 1004.8 |
| 20260504230801 | 74 | 200 | 4.3 | 10.4 | 0.00 | 0.00 | 0.00 | 26 | 1004.8 |
| 20260504230602 | 74 | 175 | 2.6 | 10.4 | 0.00 | 0.00 | 0.00 | 25 | 1004.9 |
| 20260504230402 | 74 | 221 | 4.3 | 10.4 | 0.00 | 0.00 | 0.00 | 25 | 1004.9 |
| 20260504230202 | 74 | 155 | 4.3 | 10.4 | 0.00 | 0.00 | 0.00 | 25 | 1004.9 |
| 20260504230002 | 74 | 207 | 3.5 | 10.4 | 0.00 | 0.00 | 0.00 | 26 | 1004.9 |
| 20260504225802 | 74 | 138 | 3.5 | 8.7 | 0.00 | 0.00 | 0.00 | 26 | 1004.9 |
| 20260504225601 | 74 | 205 | 4.3 | 8.7 | 0.00 | 0.00 | 0.00 | 25 | 1004.9 |
| 20260504225401 | 75 | 223 | 2.6 | 9.6 | 0.00 | 0.00 | 0.00 | 28 | 1004.8 |
| 20260504225202 | 74 | 176 | 1.7 | 9.6 | 0.00 | 0.00 | 0.00 | 28 | 1004.9 |
| 20260504225003 | 74 | 153 | 1.7 | 9.6 | 0.00 | 0.00 | 0.00 | 30 | 1004.8 |
| 20260504224802 | 73 | 209 | 4.3 | 9.6 | 0.00 | 0.00 | 0.00 | 30 | 1004.9 |
| 20260504224602 | 72 | 217 | 4.3 | 9.6 | 0.00 | 0.00 | 0.00 | 29 | 1004.8 |
| 20260504224402 | 72 | 223 | 5.2 | 11.3 | 0.00 | 0.00 | 0.00 | 28 | 1004.9 |
| 20260504224201 | 73 | 171 | 6.1 | 11.3 | 0.00 | 0.00 | 0.00 | 28 | 1004.9 |
| 20260504223802 | 74 | 250 | 5.2 | 11.3 | 0.00 | 0.00 | 0.00 | 28 | 1004.9 |
| 20260504223601 | 74 | 299 | 4.3 | 12.2 | 0.00 | 0.00 | 0.00 | 28 | 1004.9 |
| 20260504223401 | 74 | 178 | 5.2 | 12.2 | 0.00 | 0.00 | 0.00 | 27 | 1004.9 |
| 20260504223202 | 75 | 162 | 7.8 | 12.2 | 0.00 | 0.00 | 0.00 | 27 | 1004.8 |
| 20260504223001 | 75 | 223 | 4.3 | 13.9 | 0.00 | 0.00 | 0.00 | 28 | 1004.8 |
| 20260504222802 | 75 | 199 | 1.7 | 13.9 | 0.00 | 0.00 | 0.00 | 29 | 1004.9 |
| 20260504222602 | 74 | 192 | 2.6 | 13.9 | 0.00 | 0.00 | 0.00 | 29 | 1004.9 |
| 20260504222403 | 74 | 280 | 6.1 | 13.9 | 0.00 | 0.00 | 0.00 | 29 | 1004.8 |
| 20260504222202 | 74 | 223 | 5.2 | 13.9 | 0.00 | 0.00 | 0.00 | 28 | 1004.9 |
| 20260504221801 | 75 | 223 | 1.7 | 7.0 | 0.00 | 0.00 | 0.00 | 28 | 1005.0 |
| 20260504221602 | 75 | 248 | 2.6 | 7.0 | 0.00 | 0.00 | 0.00 | 28 | 1004.9 |
| 20260504221402 | 76 | 268 | 3.5 | 7.0 | 0.00 | 0.00 | 0.00 | 27 | 1004.9 |
| 20260504221202 | 77 | 215 | 2.6 | 8.7 | 0.00 | 0.00 | 0.00 | 23 | 1004.9 |
| 20260504221002 | 77 | 284 | 1.7 | 8.7 | 0.00 | 0.00 | 0.00 | 23 | 1004.8 |
| 20260504220801 | 76 | 217 | 3.5 | 8.7 | 0.00 | 0.00 | 0.00 | 21 | 1004.8 |
| 20260504220401 | 77 | 201 | 5.2 | 8.7 | 0.00 | 0.00 | 0.00 | 21 | 1004.9 |
| 20260504220202 | 77 | 283 | 2.6 | 6.1 | 0.00 | 0.00 | 0.00 | 21 | 1004.9 |
| 20260504220005 | 78 | 251 | 2.6 | 6.1 | 0.00 | 0.00 | 0.00 | 21 | 1005.0 |
| 20260504215803 | 78 | 288 | 1.7 | 6.1 | 0.00 | 0.00 | 0.00 | 23 | 1004.9 |
| 20260504215603 | 78 | 237 | 2.6 | 6.1 | 0.00 | 0.00 | 0.00 | 23 | 1005.0 |
| 20260504215403 | 77 | 257 | 2.6 | 6.1 | 0.00 | 0.00 | 0.00 | 23 | 1005.0 |
| 20260504215202 | 77 | 233 | 2.6 | 6.1 | 0.00 | 0.00 | 0.00 | 23 | 1005.0 |
| 20260504215003 | 76 | 302 | 1.7 | 4.3 | 0.00 | 0.00 | 0.00 | 25 | 1005.0 |
| 20260504214803 | 75 | 336 | 1.7 | 3.5 | 0.00 | 0.00 | 0.00 | 22 | 1005.0 |
| 20260504214602 | 75 | 304 | 1.7 | 4.3 | 0.00 | 0.00 | 0.00 | 21 | 1005.1 |
| 20260504214403 | 76 | 306 | 0.9 | 6.1 | 0.00 | 0.00 | 0.00 | 20 | 1005.1 |
| 20260504214203 | 76 | 307 | 1.7 | 6.1 | 0.00 | 0.00 | 0.00 | 21 | 1005.2 |
| 20260504213803 | 77 | 233 | 2.6 | 6.1 | 0.00 | 0.00 | 0.00 | 22 | 1005.3 |
| 20260504213602 | 76 | 204 | 3.5 | 6.1 | 0.00 | 0.00 | 0.00 | 21 | 1005.3 |
| 20260504213403 | 77 | 290 | 2.6 | 7.0 | 0.00 | 0.00 | 0.00 | 23 | 1005.3 |
| 20260504213202 | 76 | 247 | 0.9 | 7.8 | 0.00 | 0.00 | 0.00 | 24 | 1005.3 |
| 20260504213002 | 75 | 355 | 1.7 | 8.7 | 0.00 | 0.00 | 0.00 | 22 | 1005.4 |
| 20260504212803 | 75 | 289 | 3.5 | 8.7 | 0.00 | 0.00 | 0.00 | 24 | 1005.5 |
| 20260504212403 | 76 | 251 | 4.3 | 8.7 | 0.00 | 0.00 | 0.00 | 21 | 1005.5 |
| 20260504212203 | 77 | 320 | 0.9 | 8.7 | 0.00 | 0.00 | 0.00 | 23 | 1005.5 |
| 20260504212003 | 76 | 254 | 0.9 | 4.3 | 0.00 | 0.00 | 0.00 | 25 | 1005.5 |
| 20260504211803 | 75 | 204 | 0.9 | 7.8 | 0.00 | 0.00 | 0.00 | 24 | 1005.5 |
| 20260504211603 | 75 | 286 | 1.7 | 7.8 | 0.00 | 0.00 | 0.00 | 23 | 1005.5 |
| 20260504211402 | 74 | 313 | 2.6 | 7.8 | 0.00 | 0.00 | 0.00 | 23 | 1005.6 |
| 20260504211203 | 75 | 295 | 3.5 | 7.8 | 0.00 | 0.00 | 0.00 | 22 | 1005.6 |
| 20260504211003 | 75 | 302 | 3.5 | 7.8 | 0.00 | 0.00 | 0.00 | 24 | 1005.5 |
| 20260504210803 | 75 | 337 | 4.3 | 7.8 | 0.00 | 0.00 | 0.00 | 24 | 1005.6 |
| 20260504210403 | 75 | 285 | 3.5 | 7.8 | 0.00 | 0.00 | 0.00 | 24 | 1005.6 |
| 20260504210203 | 75 | 280 | 2.6 | 7.8 | 0.00 | 0.00 | 0.00 | 24 | 1005.6 |
| 20260504210004 | 75 | 263 | 4.3 | 7.8 | 0.00 | 0.00 | 0.00 | 24 | 1005.6 |
| 20260504205801 | 75 | 286 | 2.6 | 7.8 | 0.00 | 0.00 | 0.00 | 24 | 1005.6 |
| 20260504205401 | 75 | 300 | 3.5 | 7.8 | 0.00 | 0.00 | 0.00 | 25 | 1005.7 |
| 20260504205201 | 75 | 9 | 2.6 | 8.7 | 0.00 | 0.00 | 0.00 | 24 | 1005.7 |
| 20260504205003 | 75 | 346 | 1.7 | 8.7 | 0.00 | 0.00 | 0.00 | 24 | 1005.8 |
| 20260504204802 | 75 | 302 | 2.6 | 8.7 | 0.00 | 0.00 | 0.00 | 24 | 1005.8 |
| 20260504204602 | 75 | 327 | 3.5 | 8.7 | 0.00 | 0.00 | 0.00 | 23 | 1005.8 |
| 20260504204402 | 76 | 285 | 4.3 | 8.7 | 0.00 | 0.00 | 0.00 | 24 | 1005.8 |
| 20260504204203 | 76 | 326 | 3.5 | 7.0 | 0.00 | 0.00 | 0.00 | 25 | 1005.8 |
| 20260504203803 | 76 | 292 | 2.6 | 6.1 | 0.00 | 0.00 | 0.00 | 23 | 1005.9 |
| 20260504203602 | 76 | 322 | 2.6 | 4.3 | 0.00 | 0.00 | 0.00 | 24 | 1005.9 |
| 20260504203402 | 75 | 285 | 1.7 | 7.0 | 0.00 | 0.00 | 0.00 | 25 | 1006.0 |
| 20260504203202 | 75 | 281 | 2.6 | 7.0 | 0.00 | 0.00 | 0.00 | 24 | 1005.9 |
| 20260504203001 | 76 | 15 | 1.7 | 8.7 | 0.00 | 0.00 | 0.00 | 23 | 1005.9 |
| 20260504202801 | 76 | 252 | 1.7 | 8.7 | 0.00 | 0.00 | 0.00 | 25 | 1006.0 |
| 20260504202401 | 76 | 328 | 3.5 | 8.7 | 0.00 | 0.00 | 0.00 | 25 | 1006.0 |
| 20260504202202 | 76 | 286 | 3.5 | 11.3 | 0.00 | 0.00 | 0.00 | 27 | 1006.1 |
| 20260504202001 | 76 | 206 | 3.5 | 11.3 | 0.00 | 0.00 | 0.00 | 24 | 1006.0 |
| 20260504201801 | 75 | 220 | 3.5 | 11.3 | 0.00 | 0.00 | 0.00 | 25 | 1006.0 |
| 20260504201601 | 75 | 317 | 4.3 | 11.3 | 0.00 | 0.00 | 0.00 | 24 | 1006.0 |
| 20260504201401 | 75 | 288 | 4.3 | 11.3 | 0.00 | 0.00 | 0.00 | 25 | 1006.0 |
| 20260504201201 | 75 | 250 | 4.3 | 10.4 | 0.00 | 0.00 | 0.00 | 27 | 1005.9 |
| 20260504201002 | 75 | 328 | 4.3 | 10.4 | 0.00 | 0.00 | 0.00 | 26 | 1006.0 |
| 20260504200802 | 75 | 313 | 4.3 | 8.7 | 0.00 | 0.00 | 0.00 | 26 | 1006.0 |
| 20260504200602 | 75 | 329 | 3.5 | 8.7 | 0.00 | 0.00 | 0.00 | 26 | 1006.0 |
| 20260504200401 | 75 | 300 | 4.3 | 8.7 | 0.00 | 0.00 | 0.00 | 26 | 1006.1 |
| 20260504200202 | 75 | 292 | 3.5 | 8.7 | 0.00 | 0.00 | 0.00 | 27 | 1006.2 |
| 20260504200003 | 75 | 312 | 3.5 | 8.7 | 0.00 | 0.00 | 0.00 | 26 | 1006.1 |
| 20260504195801 | 76 | 285 | 3.5 | 8.7 | 0.00 | 0.00 | 0.00 | 26 | 1006.1 |
| 20260504195601 | 76 | 296 | 3.5 | 8.7 | 0.00 | 0.00 | 0.00 | 26 | 1006.1 |
| 20260504195401 | 76 | 250 | 2.6 | 8.7 | 0.00 | 0.00 | 0.00 | 27 | 1006.2 |
| 20260504195202 | 76 | 244 | 2.6 | 8.7 | 0.00 | 0.00 | 0.00 | 27 | 1006.2 |
| 20260504195002 | 75 | 311 | 2.6 | 6.1 | 0.00 | 0.00 | 0.00 | 26 | 1006.2 |
| 20260504194801 | 75 | 219 | 2.6 | 6.1 | 0.00 | 0.00 | 0.00 | 26 | 1006.2 |
| 20260504194602 | 75 | 230 | 1.7 | 7.0 | 0.00 | 0.00 | 0.00 | 26 | 1006.3 |
| 20260504194202 | 76 | 261 | 1.7 | 7.0 | 0.00 | 0.00 | 0.00 | 27 | 1006.3 |
| 20260504194002 | 75 | 266 | 2.6 | 7.0 | 0.00 | 0.00 | 0.00 | 26 | 1006.4 |
| 20260504193601 | 75 | 294 | 0.9 | 6.1 | 0.00 | 0.00 | 0.00 | 29 | 1006.4 |
| 20260504193402 | 74 | 252 | 2.6 | 6.1 | 0.00 | 0.00 | 0.00 | 27 | 1006.4 |
| 20260504193201 | 74 | 138 | 2.6 | 5.2 | 0.00 | 0.00 | 0.00 | 28 | 1006.5 |
| 20260504192802 | 74 | 90 | 2.6 | 6.1 | 0.00 | 0.00 | 0.00 | 26 | 1006.5 |
| 20260504192603 | 74 | 40 | 1.7 | 5.2 | 0.00 | 0.00 | 0.00 | 26 | 1006.6 |
| 20260504192401 | 74 | 298 | 2.6 | 6.1 | 0.00 | 0.00 | 0.00 | 27 | 1006.7 |
| 20260504191801 | 74 | 348 | 2.6 | 7.8 | 0.00 | 0.00 | 0.00 | 27 | 1006.7 |
| 20260504191401 | 74 | 311 | 2.6 | 7.8 | 0.00 | 0.00 | 0.00 | 27 | 1006.7 |
| 20260504191202 | 73 | 304 | 3.5 | 7.8 | 0.00 | 0.00 | 0.00 | 27 | 1006.8 |
| 20260504191003 | 74 | 317 | 3.5 | 7.8 | 0.00 | 0.00 | 0.00 | 27 | 1006.7 |
| 20260504190801 | 74 | 307 | 2.6 | 7.0 | 0.00 | 0.00 | 0.00 | 26 | 1006.7 |
| 20260504190601 | 74 | 317 | 2.6 | 7.0 | 0.00 | 0.00 | 0.00 | 26 | 1006.8 |
| 20260504190202 | 74 | 279 | 3.5 | 7.0 | 0.00 | 0.00 | 0.00 | 27 | 1006.8 |
| 20260504190005 | 74 | 252 | 4.3 | 7.0 | 0.00 | 0.00 | 0.00 | 26 | 1006.8 |
| 20260504185801 | 75 | 268 | 2.6 | 7.0 | 0.00 | 0.00 | 0.00 | 25 | 1006.8 |
| 20260504185602 | 75 | 286 | 2.6 | 7.0 | 0.00 | 0.00 | 0.00 | 27 | 1006.8 |
| 20260504185402 | 75 | 205 | 0.9 | 5.2 | 0.00 | 0.00 | 0.00 | 28 | 1006.9 |
| 20260504185201 | 73 | 300 | 1.7 | 6.1 | 0.00 | 0.00 | 0.00 | 30 | 1006.8 |
| 20260504185002 | 73 | 306 | 1.7 | 6.1 | 0.00 | 0.00 | 0.00 | 26 | 1006.9 |
| 20260504184802 | 74 | 291 | 3.5 | 6.1 | 0.00 | 0.00 | 0.00 | 26 | 1006.9 |
| 20260504184601 | 75 | 254 | 1.7 | 6.1 | 0.00 | 0.00 | 0.00 | 27 | 1006.8 |
| 20260504184401 | 75 | 223 | 3.5 | 6.1 | 0.00 | 0.00 | 0.00 | 27 | 1006.9 |
| 20260504184202 | 74 | 217 | 2.6 | 6.1 | 0.00 | 0.00 | 0.00 | 27 | 1006.9 |
| 20260504183802 | 73 | 85 | 1.7 | 8.7 | 0.00 | 0.00 | 0.00 | 29 | 1006.9 |
| 20260504183602 | 73 | 146 | 1.7 | 8.7 | 0.00 | 0.00 | 0.00 | 27 | 1006.9 |
| 20260504183401 | 73 | 168 | 2.6 | 8.7 | 0.00 | 0.00 | 0.00 | 28 | 1007.0 |
| 20260504183201 | 74 | 194 | 4.3 | 8.7 | 0.00 | 0.00 | 0.00 | 28 | 1007.1 |
| 20260504183001 | 75 | 194 | 2.6 | 6.1 | 0.00 | 0.00 | 0.00 | 27 | 1007.2 |
| 20260504182802 | 75 | 121 | 1.7 | 4.3 | 0.00 | 0.00 | 0.00 | 29 | 1007.2 |
| 20260504182602 | 75 | 173 | 0.9 | 4.3 | 0.00 | 0.00 | 0.00 | 28 | 1007.2 |
| 20260504182401 | 74 | 267 | 0.9 | 4.3 | 0.00 | 0.00 | 0.00 | 28 | 1007.2 |
| 20260504182202 | 74 | 278 | 1.7 | 4.3 | 0.00 | 0.00 | 0.00 | 28 | 1007.2 |
| 20260504182001 | 74 | 169 | 0.9 | 5.2 | 0.00 | 0.00 | 0.00 | 29 | 1007.3 |
| 20260504181801 | 73 | 221 | 0.9 | 5.2 | 0.00 | 0.00 | 0.00 | 27 | 1007.3 |
| 20260504181601 | 73 | 299 | 0.9 | 5.2 | 0.00 | 0.00 | 0.00 | 28 | 1007.3 |
| 20260504181401 | 72 | 333 | 0.9 | 5.2 | 0.00 | 0.00 | 0.00 | 28 | 1007.4 |
| 20260504181002 | 72 | 343 | 1.7 | 4.3 | 0.00 | 0.00 | 0.00 | 29 | 1007.4 |
| 20260504180801 | 72 | 331 | 1.7 | 5.2 | 0.00 | 0.00 | 0.00 | 28 | 1007.5 |
| 20260504180601 | 72 | 51 | 0.9 | 6.1 | 0.00 | 0.00 | 0.00 | 28 | 1007.5 |
| 20260504180201 | 72 | 192 | 2.6 | 6.1 | 0.00 | 0.00 | 0.00 | 28 | 1007.6 |
| 20260504180004 | 73 | 180 | 2.6 | 6.1 | 0.00 | 0.00 | 0.00 | 28 | 1007.6 |
| 20260504175802 | 73 | 215 | 4.3 | 7.8 | 0.00 | 0.00 | 0.00 | 28 | 1007.6 |
| 20260504175403 | 72 | 239 | 1.7 | 7.8 | 0.00 | 0.00 | 0.00 | 28 | 1007.6 |
| 20260504175202 | 72 | 187 | 1.7 | 7.8 | 0.00 | 0.00 | 0.00 | 28 | 1007.7 |
| 20260504175001 | 73 | 192 | 4.3 | 7.8 | 0.00 | 0.00 | 0.00 | 29 | 1007.8 |
| 20260504174802 | 72 | 169 | 0.9 | 4.3 | 0.00 | 0.00 | 0.00 | 28 | 1007.8 |
| 20260504174602 | 73 | 168 | 0.9 | 4.3 | 0.00 | 0.00 | 0.00 | 27 | 1007.7 |
| 20260504174401 | 73 | 169 | 1.7 | 5.2 | 0.00 | 0.00 | 0.00 | 29 | 1007.7 |
| 20260504174201 | 73 | 206 | 0.9 | 4.3 | 0.00 | 0.00 | 0.00 | 28 | 1007.7 |
| 20260504174001 | 73 | 206 | 1.7 | 4.3 | 0.00 | 0.00 | 0.00 | 28 | 1007.8 |
| 20260504173802 | 74 | 196 | 2.6 | 4.3 | 0.00 | 0.00 | 0.00 | 28 | 1007.8 |
| 20260504173601 | 74 | 181 | 0.9 | 3.5 | 0.00 | 0.00 | 0.00 | 34 | 1007.8 |
| 20260504173401 | 73 | 101 | 0.9 | 3.5 | 0.00 | 0.00 | 0.00 | 31 | 1007.8 |
| 20260504172801 | 72 | 202 | 0.9 | 5.2 | 0.00 | 0.00 | 0.00 | 30 | 1007.9 |
| 20260504172601 | 72 | 211 | 0.9 | 5.2 | 0.00 | 0.00 | 0.00 | 30 | 1007.8 |
| 20260504172401 | 72 | 209 | 1.7 | 5.2 | 0.00 | 0.00 | 0.00 | 29 | 1007.9 |
| 20260504172202 | 72 | 165 | 0.9 | 4.3 | 0.00 | 0.00 | 0.00 | 29 | 1007.9 |
| 20260504172002 | 73 | 164 | 1.7 | 4.3 | 0.00 | 0.00 | 0.00 | 28 | 1007.9 |
| 20260504171601 | 73 | 168 | 1.7 | 4.3 | 0.00 | 0.00 | 0.00 | 29 | 1007.9 |
| 20260504171402 | 72 | 211 | 1.7 | 6.1 | 0.00 | 0.00 | 0.00 | 33 | 1007.9 |
| 20260504171202 | 72 | 202 | 1.7 | 6.1 | 0.00 | 0.00 | 0.00 | 32 | 1007.9 |
| 20260504170802 | 71 | 205 | 2.6 | 6.1 | 0.00 | 0.00 | 0.00 | 32 | 1007.9 |
| 20260504170601 | 71 | 173 | 3.5 | 6.1 | 0.00 | 0.00 | 0.00 | 31 | 1007.9 |
| 20260504170401 | 72 | 202 | 2.6 | 6.1 | 0.00 | 0.00 | 0.00 | 31 | 1007.9 |
| 20260504170201 | 72 | 215 | 1.7 | 6.1 | 0.00 | 0.00 | 0.00 | 30 | 1007.9 |
| 20260504151001 | 67 | 183 | 0.9 | 5.2 | 0.00 | 0.00 | 0.00 | 41 | 1008.4 |
| 20260504150602 | 67 | 199 | 2.6 | 5.2 | 0.00 | 0.00 | 0.00 | 40 | 1008.4 |
| 20260504150401 | 67 | 188 | 2.6 | 4.3 | 0.00 | 0.00 | 0.00 | 40 | 1008.4 |
| 20260504150201 | 67 | 198 | 0.9 | 3.5 | 0.00 | 0.00 | 0.00 | 41 | 1008.4 |
| 20260504141001 | 65 | 109 | 0.0 | 1.7 | 0.00 | 0.00 | 0.00 | 36 | 1008.5 |
| 20260504140801 | 65 | 108 | 0.0 | 0.9 | 0.00 | 0.00 | 0.00 | 37 | 1008.5 |
| 20260504140601 | 65 | 108 | 0.0 | 0.0 | 0.00 | 0.00 | 0.00 | 37 | 1008.5 |
| 20260504140401 | 65 | 108 | 0.0 | 0.0 | 0.00 | 0.00 | 0.00 | 38 | 1008.4 |
| 20260504130800 | 54 | 96 | 0.9 | 2.6 | 0.00 | 0.00 | 0.00 | 48 | 1008.4 |
| 20260504130600 | 54 | 68 | 0.0 | 0.0 | 0.00 | 0.00 | 0.00 | 48 | 1008.4 |
| 20260504130400 | 54 | 68 | 0.0 | 0.9 | 0.00 | 0.00 | 0.00 | 47 | 1008.4 |
| 20260504130200 | 54 | 68 | 0.0 | 1.7 | 0.00 | 0.00 | 0.00 | 47 | 1008.4 |
| 20260504120201 | 53 | 68 | 0.0 | 0.0 | 0.00 | 0.00 | 0.00 | 46 | 1008.4 |
| 20260504110359 | 55 | 68 | 0.9 | 2.6 | 0.00 | 0.00 | 0.00 | 43 | 1008.5 |
| 20260504110200 | 55 | 68 | 0.9 | 2.6 | 0.00 | 0.00 | 0.00 | 43 | 1008.5 |
| 20260504100600 | 55 | 28 | 0.0 | 0.0 | 0.00 | 0.00 | 0.00 | 46 | 1008.2 |
| 20260504100400 | 55 | 28 | 0.0 | 0.0 | 0.00 | 0.00 | 0.00 | 46 | 1008.2 |
| 20260504100200 | 55 | 28 | 0.0 | 0.0 | 0.00 | 0.00 | 0.00 | 46 | 1008.2 |
| 20260504081801 | 55 | 24 | 0.0 | 0.0 | 0.00 | 0.00 | 0.00 | 40 | 1007.3 |
| 20260504081601 | 55 | 24 | 0.0 | 0.0 | 0.00 | 0.00 | 0.00 | 39 | 1007.4 |
| 20260504081401 | 55 | 24 | 0.0 | 0.0 | 0.00 | 0.00 | 0.00 | 39 | 1007.3 |
| 20260504081000 | 56 | 24 | 0.0 | 0.0 | 0.00 | 0.00 | 0.00 | 38 | 1007.3 |
| 20260504080800 | 56 | 24 | 0.0 | 0.0 | 0.00 | 0.00 | 0.00 | 38 | 1007.3 |
| 20260504080601 | 56 | 24 | 0.0 | 0.0 | 0.00 | 0.00 | 0.00 | 38 | 1007.3 |
| 20260504080400 | 56 | 24 | 0.0 | 0.0 | 0.00 | 0.00 | 0.00 | 38 | 1007.3 |
| 20260504080200 | 56 | 24 | 0.0 | 0.0 | 0.00 | 0.00 | 0.00 | 37 | 1007.4 |
| 20260504070400 | 57 | 24 | 0.0 | 0.0 | 0.00 | 0.00 | 0.00 | 35 | 1007.6 |
| 20260504070200 | 57 | 24 | 0.0 | 0.0 | 0.00 | 0.00 | 0.00 | 35 | 1007.6 |